Zurück zum Katalog

STARLINK-11697

AktivKommunikationVLEO
NORAD 63553·PAYLOAD·🇺🇸 United States

Gestartet Apr 13, 2025 von Cape Canaveral Space Force Station

Loading…

Nächste Überflüge (nächste 24 Stunden)

TLE

AktuellSource: CelesTrak SupGP

Epoche: Sep 15, 2026, 03:53 UTC

1 63553C 25075F   26258.16229167 -.00004163  00000+0 -32308-4 0  2581
2 63553  43.0005  91.5099 0001748 273.7829 319.6623 15.70859403    10

Verfolge STARLINK-11697 in Echtzeit mit AllMySat

Download on the App Store